Time,TemperatureF,DewpointF,PressureIn,WindDirection,WindDirectionDegrees,WindSpeedMPH,WindSpeedGustMPH,Humidity,HourlyPrecipIn,Conditions,Clouds,dailyrainin,SoftwareType,DateUTC
2013-02-27 00:01:00,70.0,61.0,-100.00,ENE,77,11.0,19.0,74,0.00,,,0.06,,2013-02-27 10:01:00,
2013-02-27 00:12:00,70.0,61.0,-100.00,ENE,77,11.0,19.0,74,0.00,,,0.06,,2013-02-27 10:12:00,
2013-02-27 00:21:00,70.0,61.0,-100.00,ENE,77,11.0,19.0,74,0.00,,,0.06,,2013-02-27 10:21:00,
2013-02-27 00:31:00,70.0,61.0,-100.00,ENE,77,11.0,19.0,74,0.00,,,0.06,,2013-02-27 10:31:00,
2013-02-27 00:41:00,70.0,60.0,-100.00,ENE,68,11.0,19.0,71,0.00,,,0.06,,2013-02-27 10:41:00,
2013-02-27 01:01:00,70.0,60.0,-100.00,ENE,68,11.0,19.0,71,0.00,,,0.06,,2013-02-27 11:01:00,
2013-02-27 01:12:00,70.0,60.0,-100.00,ENE,68,11.0,19.0,71,0.00,,,0.06,,2013-02-27 11:12:00,
2013-02-27 01:22:00,70.0,60.0,-100.00,ENE,68,11.0,19.0,71,0.00,,,0.06,,2013-02-27 11:22:00,
2013-02-27 01:31:00,70.0,60.0,-100.00,ENE,68,11.0,19.0,71,0.00,,,0.06,,2013-02-27 11:31:00,
2013-02-27 01:41:00,70.0,59.0,-100.00,ENE,67,11.0,21.0,69,0.00,,,0.06,,2013-02-27 11:41:00,
2013-02-27 02:02:00,70.0,59.0,-100.00,ENE,67,11.0,21.0,69,0.00,,,0.06,,2013-02-27 12:02:00,
2013-02-27 02:12:00,70.0,59.0,-100.00,ENE,67,11.0,21.0,69,0.00,,,0.06,,2013-02-27 12:12:00,
2013-02-27 02:22:00,70.0,59.0,-100.00,ENE,67,11.0,21.0,69,0.00,,,0.06,,2013-02-27 12:22:00,
2013-02-27 02:32:00,70.0,59.0,-100.00,ENE,67,11.0,21.0,69,0.00,,,0.06,,2013-02-27 12:32:00,
2013-02-27 02:41:00,70.0,59.0,-100.00,ENE,69,9.0,21.0,67,0.00,,,0.06,,2013-02-27 12:41:00,
2013-02-27 03:02:00,70.0,59.0,-100.00,ENE,69,9.0,21.0,67,0.00,,,0.06,,2013-02-27 13:02:00,
2013-02-27 03:11:00,70.0,59.0,-100.00,ENE,69,9.0,21.0,67,0.00,,,0.06,,2013-02-27 13:11:00,
2013-02-27 03:21:00,70.0,59.0,-100.00,ENE,69,9.0,21.0,67,0.00,,,0.06,,2013-02-27 13:21:00,
2013-02-27 03:31:00,70.0,59.0,-100.00,ENE,69,9.0,21.0,67,0.00,,,0.06,,2013-02-27 13:31:00,
2013-02-27 03:41:00,69.0,56.0,-100.00,East,85,6.0,20.0,63,0.00,,,0.06,,2013-02-27 13:41:00,
2013-02-27 04:02:00,69.0,56.0,-100.00,East,85,6.0,20.0,63,0.00,,,0.06,,2013-02-27 14:02:00,
2013-02-27 04:12:00,69.0,56.0,-100.00,East,85,6.0,20.0,63,0.00,,,0.06,,2013-02-27 14:12:00,
2013-02-27 04:21:00,69.0,56.0,-100.00,East,85,6.0,20.0,63,0.00,,,0.06,,2013-02-27 14:21:00,
2013-02-27 04:31:00,69.0,56.0,-100.00,East,85,6.0,20.0,63,0.00,,,0.06,,2013-02-27 14:31:00,
2013-02-27 04:41:00,70.0,60.0,-100.00,ENE,61,8.0,16.0,70,0.00,,,0.06,,2013-02-27 14:41:00,
2013-02-27 05:02:00,70.0,60.0,-100.00,ENE,61,8.0,16.0,70,0.00,,,0.06,,2013-02-27 15:02:00,
2013-02-27 05:12:00,70.0,60.0,-100.00,ENE,61,8.0,16.0,70,0.00,,,0.06,,2013-02-27 15:12:00,
2013-02-27 05:22:00,70.0,60.0,-100.00,ENE,61,8.0,16.0,70,0.00,,,0.06,,2013-02-27 15:22:00,
2013-02-27 05:32:00,70.0,60.0,-100.00,ENE,61,8.0,16.0,70,0.00,,,0.06,,2013-02-27 15:32:00,
2013-02-27 05:41:00,70.0,59.0,-100.00,ENE,66,12.0,21.0,69,0.00,,,-99.99,,2013-02-27 15:41:00,
2013-02-27 06:01:00,70.0,59.0,-100.00,ENE,66,12.0,21.0,69,0.00,,,-99.99,,2013-02-27 16:01:00,
2013-02-27 06:11:00,70.0,59.0,-100.00,ENE,66,12.0,21.0,69,0.00,,,-99.99,,2013-02-27 16:11:00,
2013-02-27 06:21:00,70.0,59.0,-100.00,ENE,66,12.0,21.0,69,0.00,,,-99.99,,2013-02-27 16:21:00,
2013-02-27 06:32:00,70.0,59.0,-100.00,ENE,66,12.0,21.0,69,0.00,,,-99.99,,2013-02-27 16:32:00,
2013-02-27 06:41:00,70.0,57.0,-100.00,ENE,63,10.0,20.0,64,0.00,,,0.02,,2013-02-27 16:41:00,
2013-02-27 07:01:00,70.0,57.0,-100.00,ENE,63,10.0,20.0,64,0.00,,,0.02,,2013-02-27 17:01:00,
2013-02-27 07:11:00,70.0,57.0,-100.00,ENE,63,10.0,20.0,64,0.00,,,0.02,,2013-02-27 17:11:00,
2013-02-27 07:21:00,70.0,57.0,-100.00,ENE,63,10.0,20.0,64,0.00,,,0.02,,2013-02-27 17:21:00,
2013-02-27 07:32:00,70.0,57.0,-100.00,ENE,63,10.0,20.0,64,0.00,,,0.02,,2013-02-27 17:32:00,
2013-02-27 07:41:00,71.0,58.0,-100.00,ENE,64,9.0,20.0,63,0.00,,,0.02,,2013-02-27 17:41:00,
2013-02-27 08:11:00,71.0,58.0,-100.00,ENE,64,9.0,20.0,63,0.00,,,0.02,,2013-02-27 18:11:00,
2013-02-27 08:22:00,71.0,58.0,-100.00,ENE,64,9.0,20.0,63,0.00,,,0.02,,2013-02-27 18:22:00,
2013-02-27 08:32:00,71.0,58.0,-100.00,ENE,64,9.0,20.0,63,0.00,,,0.02,,2013-02-27 18:32:00,
2013-02-27 08:41:00,74.0,58.0,-100.00,ENE,71,11.0,17.0,57,0.00,,,0.02,,2013-02-27 18:41:00,
2013-02-27 09:01:00,74.0,58.0,-100.00,ENE,71,11.0,17.0,57,0.00,,,0.02,,2013-02-27 19:01:00,
2013-02-27 09:11:00,74.0,58.0,-100.00,ENE,71,11.0,17.0,57,0.00,,,0.02,,2013-02-27 19:11:00,
2013-02-27 09:21:00,74.0,58.0,-100.00,ENE,71,11.0,17.0,57,0.00,,,0.02,,2013-02-27 19:21:00,
2013-02-27 09:32:00,74.0,58.0,-100.00,ENE,71,11.0,17.0,57,0.00,,,0.02,,2013-02-27 19:32:00,
2013-02-27 09:41:00,78.0,58.0,-100.00,East,79,9.0,23.0,51,0.00,,,0.02,,2013-02-27 19:41:00,
2013-02-27 10:01:00,78.0,58.0,-100.00,East,79,9.0,23.0,51,0.00,,,0.02,,2013-02-27 20:01:00,
2013-02-27 10:11:00,78.0,58.0,-100.00,East,79,9.0,23.0,51,0.00,,,0.02,,2013-02-27 20:11:00,
2013-02-27 10:21:00,78.0,58.0,-100.00,East,79,9.0,23.0,51,0.00,,,0.02,,2013-02-27 20:21:00,
2013-02-27 10:31:00,78.0,58.0,-100.00,East,79,9.0,23.0,51,0.00,,,0.02,,2013-02-27 20:31:00,
2013-02-27 10:41:00,78.0,56.0,-100.00,ENE,65,14.0,24.0,46,0.00,,,-99.99,,2013-02-27 20:41:00,
2013-02-27 11:02:00,78.0,56.0,-100.00,ENE,65,14.0,24.0,46,0.00,,,-99.99,,2013-02-27 21:02:00,
2013-02-27 11:11:00,78.0,56.0,-100.00,ENE,65,14.0,24.0,46,0.00,,,-99.99,,2013-02-27 21:11:00,
2013-02-27 11:21:00,78.0,56.0,-100.00,ENE,65,14.0,24.0,46,0.00,,,-99.99,,2013-02-27 21:21:00,
2013-02-27 11:31:00,78.0,56.0,-100.00,ENE,65,14.0,24.0,46,0.00,,,-99.99,,2013-02-27 21:31:00,
2013-02-27 11:41:00,80.0,59.0,-100.00,ENE,64,12.0,25.0,49,0.00,,,0.02,,2013-02-27 21:41:00,
2013-02-27 12:01:00,80.0,59.0,-100.00,ENE,64,12.0,25.0,49,0.00,,,0.02,,2013-02-27 22:01:00,
2013-02-27 12:11:00,80.0,59.0,-100.00,ENE,64,12.0,25.0,49,0.00,,,0.02,,2013-02-27 22:11:00,
2013-02-27 12:21:00,80.0,59.0,-100.00,ENE,64,12.0,25.0,49,0.00,,,0.02,,2013-02-27 22:21:00,
2013-02-27 12:31:00,80.0,59.0,-100.00,ENE,64,12.0,25.0,49,0.00,,,0.02,,2013-02-27 22:31:00,
2013-02-27 12:41:00,81.0,54.0,-100.00,ENE,67,12.0,27.0,39,0.00,,,0.02,,2013-02-27 22:41:00,
2013-02-27 13:01:00,81.0,54.0,-100.00,ENE,67,12.0,27.0,39,0.00,,,0.02,,2013-02-27 23:01:00,
2013-02-27 13:11:00,81.0,54.0,-100.00,ENE,67,12.0,27.0,39,0.00,,,0.02,,2013-02-27 23:11:00,
2013-02-27 13:21:00,81.0,54.0,-100.00,ENE,67,12.0,27.0,39,0.00,,,0.02,,2013-02-27 23:21:00,
2013-02-27 13:31:00,81.0,54.0,-100.00,ENE,67,12.0,27.0,39,0.00,,,0.02,,2013-02-27 23:31:00,
2013-02-27 13:41:00,81.0,56.0,-100.00,East,82,14.0,24.0,42,0.00,,,0.01,,2013-02-27 23:41:00,
2013-02-27 14:01:00,81.0,56.0,-100.00,East,82,14.0,24.0,42,0.00,,,0.01,,2013-02-28 00:01:00,
2013-02-27 14:11:00,81.0,56.0,-100.00,East,82,14.0,24.0,42,0.00,,,0.01,,2013-02-28 00:11:00,
2013-02-27 14:21:00,81.0,56.0,-100.00,East,82,14.0,24.0,42,0.00,,,0.01,,2013-02-28 00:21:00,
2013-02-27 14:31:00,81.0,56.0,-100.00,East,82,14.0,24.0,42,0.00,,,0.01,,2013-02-28 00:31:00,
2013-02-27 14:41:00,80.0,59.0,-100.00,ENE,58,12.0,21.0,49,0.00,,,0.01,,2013-02-28 00:41:00,
2013-02-27 15:01:00,80.0,59.0,-100.00,ENE,58,12.0,21.0,49,0.00,,,0.01,,2013-02-28 01:01:00,
2013-02-27 15:11:00,80.0,59.0,-100.00,ENE,58,12.0,21.0,49,0.00,,,0.01,,2013-02-28 01:11:00,
2013-02-27 15:21:00,80.0,59.0,-100.00,ENE,58,12.0,21.0,49,0.00,,,0.01,,2013-02-28 01:21:00,
2013-02-27 15:31:00,80.0,59.0,-100.00,ENE,58,12.0,21.0,49,0.00,,,0.01,,2013-02-28 01:31:00,
2013-02-27 15:41:00,79.0,59.0,-100.00,ENE,66,13.0,22.0,51,0.00,,,0.01,,2013-02-28 01:41:00,
2013-02-27 16:01:00,79.0,59.0,-100.00,ENE,66,13.0,22.0,51,0.00,,,0.01,,2013-02-28 02:01:00,
2013-02-27 16:11:00,79.0,59.0,-100.00,ENE,66,13.0,22.0,51,0.00,,,0.01,,2013-02-28 02:11:00,
2013-02-27 16:22:00,79.0,59.0,-100.00,ENE,66,13.0,22.0,51,0.00,,,0.01,,2013-02-28 02:22:00,
2013-02-27 16:31:00,79.0,59.0,-100.00,ENE,66,13.0,22.0,51,0.00,,,0.01,,2013-02-28 02:31:00,
2013-02-27 16:41:00,78.0,59.0,-100.00,ENE,59,11.0,21.0,52,0.00,,,0.01,,2013-02-28 02:41:00,
2013-02-27 17:01:00,78.0,59.0,-100.00,ENE,59,11.0,21.0,52,0.00,,,0.01,,2013-02-28 03:01:00,
2013-02-27 17:11:00,78.0,59.0,-100.00,ENE,59,11.0,21.0,52,0.00,,,0.01,,2013-02-28 03:11:00,
2013-02-27 17:21:00,78.0,59.0,-100.00,ENE,59,11.0,21.0,52,0.00,,,0.01,,2013-02-28 03:21:00,
2013-02-27 17:31:00,78.0,59.0,-100.00,ENE,59,11.0,21.0,52,0.00,,,0.01,,2013-02-28 03:31:00,
2013-02-27 17:41:00,75.0,57.0,-100.00,ENE,76,11.0,21.0,53,0.00,,,0.01,,2013-02-28 03:41:00,
2013-02-27 18:01:00,75.0,57.0,-100.00,ENE,76,11.0,21.0,53,0.00,,,0.01,,2013-02-28 04:01:00,
2013-02-27 18:11:00,75.0,57.0,-100.00,ENE,76,11.0,21.0,53,0.00,,,0.01,,2013-02-28 04:11:00,
2013-02-27 18:21:00,75.0,57.0,-100.00,ENE,76,11.0,21.0,53,0.00,,,0.01,,2013-02-28 04:21:00,
2013-02-27 18:31:00,75.0,57.0,-100.00,ENE,76,11.0,21.0,53,0.00,,,0.01,,2013-02-28 04:31:00,
2013-02-27 18:41:00,73.0,58.0,-100.00,ENE,76,12.0,21.0,59,0.00,,,0.01,,2013-02-28 04:41:00,
2013-02-27 19:01:00,73.0,58.0,-100.00,ENE,76,12.0,21.0,59,0.00,,,0.01,,2013-02-28 05:01:00,
2013-02-27 19:11:00,73.0,58.0,-100.00,ENE,76,12.0,21.0,59,0.00,,,0.01,,2013-02-28 05:11:00,
2013-02-27 19:22:00,73.0,58.0,-100.00,ENE,76,12.0,21.0,59,0.00,,,0.01,,2013-02-28 05:22:00,
2013-02-27 19:31:00,73.0,58.0,-100.00,ENE,76,12.0,21.0,59,0.00,,,0.01,,2013-02-28 05:31:00,
2013-02-27 19:41:00,71.0,59.0,-100.00,ENE,78,9.0,18.0,65,0.00,,,0.01,,2013-02-28 05:41:00,
2013-02-27 20:01:00,71.0,59.0,-100.00,ENE,78,9.0,18.0,65,0.00,,,0.01,,2013-02-28 06:01:00,
2013-02-27 20:11:00,71.0,59.0,-100.00,ENE,78,9.0,18.0,65,0.00,,,0.01,,2013-02-28 06:11:00,
2013-02-27 20:22:00,71.0,59.0,-100.00,ENE,78,9.0,18.0,65,0.00,,,0.01,,2013-02-28 06:22:00,
2013-02-27 20:32:00,71.0,59.0,-100.00,ENE,78,9.0,18.0,65,0.00,,,0.01,,2013-02-28 06:32:00,
2013-02-27 20:41:00,71.0,58.0,-100.00,ENE,65,10.0,16.0,64,0.00,,,0.01,,2013-02-28 06:41:00,
2013-02-27 21:01:00,71.0,58.0,-100.00,ENE,65,10.0,16.0,64,0.00,,,0.01,,2013-02-28 07:01:00,
2013-02-27 21:11:00,71.0,58.0,-100.00,ENE,65,10.0,16.0,64,0.00,,,0.01,,2013-02-28 07:11:00,
2013-02-27 21:21:00,71.0,58.0,-100.00,ENE,65,10.0,16.0,64,0.00,,,0.01,,2013-02-28 07:21:00,
2013-02-27 21:31:00,71.0,58.0,-100.00,ENE,65,10.0,16.0,64,0.00,,,0.01,,2013-02-28 07:31:00,
2013-02-27 21:41:00,71.0,59.0,-100.00,ENE,72,8.0,17.0,66,0.00,,,0.01,,2013-02-28 07:41:00,
2013-02-27 22:01:00,71.0,59.0,-100.00,ENE,72,8.0,17.0,66,0.00,,,0.01,,2013-02-28 08:01:00,
2013-02-27 22:11:00,71.0,59.0,-100.00,ENE,72,8.0,17.0,66,0.00,,,0.01,,2013-02-28 08:11:00,
2013-02-27 22:21:00,71.0,59.0,-100.00,ENE,72,8.0,17.0,66,0.00,,,0.01,,2013-02-28 08:21:00,
2013-02-27 22:32:00,71.0,59.0,-100.00,ENE,72,8.0,17.0,66,0.00,,,0.01,,2013-02-28 08:32:00,
2013-02-27 22:41:00,71.0,59.0,-100.00,ENE,71,9.0,16.0,66,0.00,,,0.00,,2013-02-28 08:41:00,
2013-02-27 23:03:00,71.0,59.0,-100.00,ENE,71,9.0,16.0,66,0.00,,,0.00,,2013-02-28 09:03:00,
2013-02-27 23:11:00,71.0,59.0,-100.00,ENE,71,9.0,16.0,66,0.00,,,0.00,,2013-02-28 09:11:00,
2013-02-27 23:21:00,71.0,59.0,-100.00,ENE,71,9.0,16.0,66,0.00,,,0.00,,2013-02-28 09:21:00,
2013-02-27 23:31:00,71.0,59.0,-100.00,ENE,71,9.0,16.0,66,0.00,,,0.00,,2013-02-28 09:31:00,
2013-02-27 23:41:00,71.0,58.0,-100.00,ENE,78,10.0,18.0,63,0.00,,,0.00,,2013-02-28 09:41:00,